sat.trackr.live / text

‹ back to catalog

STARLINK-34203

NORAD 64246 · 2025-119P

PAYLOAD ACTIVE UNKNOWN

§ Identity

Operator
Country
US
Launch date
2025-06-03
Launch site
AFETR
Launch vehicle
Mass (kg)
RCS (m²)

Purposes: comms

External: N2YO · Heavens-Above · Gunter

§ Orbital elements

Epoch: 2026-09-20T08:47:43.927296Z

Period
94.27 min
Inclination
42.9986°
Eccentricity
0.0000123
Mean motion
15.27587076 rev/d
Perigee alt
482.9 km
Apogee alt
483.1 km
Semi-major
6,861.2 km
B*
4.3738e-4
RAAN
287.5358°
Arg perigee
336.8509°
Mean anomaly
23.2337°
Rev number
7,395

§ Raw data

STARLINK-342031 64246U 25119P   26263.36648064  .00011796  00000+0  43738-3 0  99972 64246  42.9986 287.5358 0000123 336.8509  23.2337 15.27587076 73952

JSON: /api/v1/satellites/64246 · /tle

For live sub-satellite position, see the globe view (requires WebGL).

§ Visibility from observer

Set your observer location to see the next 7 days of passes ≥ 10°. The values pass through the URL so the page stays shareable.

No JS? Fill the form by hand. The geolocation button needs JavaScript.